Location: Barruelo
(41.2448°N, 3.8231°W)
Time: 22:17:01
(UTC+00:00)

Cosmos 1726 Rocket - Visible Passes

Search period start: 12 March 2026 00:00
Search period end: 22 March 2026 00:00
Orbit: 555 x 660 km, 82.5° (Epoch: 12 March)

Date Brightness Start Highest point End Pass type
(mag) Time Alt. Az. Time Alt. Az. Time Alt. Az.
12 Mar 7.0 05:14:33 10° ESE 05:17:03 15° E 05:19:33 10° NE visible
13 Mar 6.3 05:26:59 10° SE 05:30:37 24° E 05:34:20 10° NE visible
13 Mar 7.6 18:51:19 10° WNW 18:52:21 11° W 18:53:23 10° W visible
14 Mar 5.2 05:40:03 10° SSE 05:44:17 40° E 05:48:37 10° NNE visible
15 Mar 4.1 05:53:30 10° S 05:58:01 70° E 06:02:38 10° NNE visible
16 Mar 7.1 04:33:37 10° E 04:34:53 11° E 04:36:10 10° ENE visible
17 Mar 6.6 04:45:16 10° SE 04:48:26 19° E 04:51:38 10° NE visible
18 Mar 5.7 04:58:02 10° SSE 05:02:03 31° E 05:06:07 10° NNE visible
19 Mar 4.6 05:11:18 10° S 05:15:44 52° E 05:20:16 10° NNE visible
20 Mar 3.7 05:24:55 10° S 05:29:31 89° ENE 05:34:11 10° N visible
21 Mar 6.7 04:03:47 10° ESE 04:06:14 14° E 04:08:43 10° NE visible
21 Mar 3.8 05:38:51 10° SSW 05:43:21 53° W 05:47:54 10° N visible
